FENGYUN 1C DEB

Satellite information

Favourite Embed

Satellite Type and Status

DEBRISIN ORBIT

Key statistics

Satellite FENGYUN 1C DEB at a glance.

Uptime

9556

Days in orbit

Revolutions

≈ 14.2

Per day

Orbit

SSO

Sun Synchronous Orbit

Inclination

99.0

Latest

Satellite identification and parameters

Extended collection of information and parameters for FENGYUN 1C DEB.

Object identification

Identified? True

Debris? True

Object name: FENGYUN 1C DEB

International designator: 1999-025BDL

Object number (NORAD): 31018

Object ID (CCSDS): 31018

Country: PEOPLES REPUBLIC OF CHINA (PRC)

Current information (Y/N): Y

RCS size: SMALL

Orbital parameters

Period: 101.724 minutes

Inclination: 99.0301 deg

SMA: 7218.425 km

Apoapsis: 883.474 km

Periapsis: 797.105 km

RAAN: 273.3903 deg

Eccentricy: 0.0059825

Argument of periapsis: 210.5841 deg

Mean anomaly: 149.1839 deg

Mean motion: 14.15595331 rev/day

Mean motion (dot): 0.00002231 rev/day2

B* drag term: 0.0011433 1/REarth

Two-line elements (TLE)

Creation date: July 8, 2025, 2:27 a.m.

Reference frame: TEME

Reference center: EARTH

Epoch: July 7, 2025, 6:21 p.m. UTC

TLE line 0: 0 FENGYUN 1C DEB

TLE line 1: 1 31018U 99025BDL 25188.76469012 .00002231 00000-0 11433-2 0 9999

TLE line 2: 2 31018 99.0301 273.3903 0059825 210.5841 149.1839 14.15595331938196

Live tracking on map

Real-time ground track for satellite FENGYUN 1C DEB.

In-orbit conjunctions

A list of the most updated potential collisions computed for object FENGYUN 1C DEB.

Target Orbit TCA Probability of collision Miss distance Type
CZ-6A DEB LEO 2025-03-01 21:26:56 0.0001111486 1000.0 (m) DEBRIS
COSMOS 1275 DEB LEO 2024-11-28 19:04:44 0.0001259318 95.0 (m) DEBRIS

Associated space launch

Chinese polar orbiting meteorological satellite

FENGYUN 1C DEB was lifted into orbit during the mission ‘Long March 4B | Feng Yun 1C’, on board a Long March 4B space rocket.

The launch took place on May 10, 1999, 1:33 a.m. from Launch Complex 7.

For more information about the launch, click the button.

Launch to space Long March 4B | Feng Yun 1C
Long March 4B | Feng Yun 1C

Agency: N/A

Status: Launch Successful

Launch date: May 10, 1999, 1:33 a.m. UTC

Rocket: Long March 4B

Launch pad: Launch Complex 7

Location: Taiyuan Satellite Launch Center, People's Republic of China

...

Latest news about this satellite

There are no fresh news available about this satellite. Check back as we update our databases every day.


Newsletter sign-up

Weekly statistics, charts and insights to help you stay on top of the space industry.